Regional Weather Roundup
Issued by NWS San Diego, CA

Home | Current Version | Previous Version | Text Only | Print | Product List | Glossary On
Versions: 1 2 3 4 5 6 7 8 9 10 11 12 13 14 15 16 17 18 19 20 21 22 23 24 25 26 27
000
ASUS46 KSGX 250110
RWRSGX

SAN DIEGO HOURLY WEATHER ROUNDUP
NATIONAL WEATHER SERVICE SAN DIEGO CA
600 PM PDT WED AUG 24 2016

NOTE: "FAIR" INDICATES FEW OR NO CLOUDS BELOW 12,000 FEET WITH NO
SIGNIFICANT WEATHER AND/OR OBSTRUCTIONS TO VISIBILITY.

CAZ042-043-060-061-PZZ750-775-250200-

GREATER SAN DIEGO AREA

CITY           SKY/WX    TMP DP  RH WIND       PRES   REMARKS
LINDBERGH FLD  MOSUNNY   73  63  70 W9        29.95F
POINT LOMA       N/A     73  64  73 W13         N/A
NATIONAL CITY    N/A     74  66  75 NW3       29.95S
CHULA VISTA      N/A     75  67  76 W3        29.86F
IMPERIAL BEACH MOSUNNY   73  64  73 W9        29.95S
BROWN FIELD    SUNNY     74  63  68 W8        29.94F
MIRAMAR MCAS   MOSUNNY   77  60  55 NW7       29.94F
MONTGOMERY FLD SUNNY     75  60  59 W8        29.94F

$$

NORTH SAN DIEGO COUNTY

CITY           SKY/WX    TMP DP  RH WIND       PRES   REMARKS
CAMP PENDLETON SUNNY     71  64  78 S9        29.91F
OCEANSIDE AP   SUNNY     74  63  68 SW8       29.92F
OCEANSIDE HBR    N/A     71  67  87 W6        29.95F
VISTA            N/A     76  64  65 SW5       29.91S
CARLSBAD       SUNNY     72  63  73 SW6       29.93F
DEL MAR          N/A     73  66  79 CALM      29.96F
LA JOLLA SCRIP   N/A     71  67  87 NW5       29.93F
FALLBROOK        N/A     78  64  61 S6        29.90F
ESCONDIDO        N/A     80  62  54 CALM      29.94S
SAN MARCOS       N/A     76  63  63 W5        29.96F
POWAY            N/A     79  62  54 CALM      29.93S

$$

EAST SAN DIEGO COUNTY

CITY           SKY/WX    TMP DP  RH WIND       PRES   REMARKS
RAMONA         SUNNY     82  55  39 W8        29.96F
SANTEE LAKES     N/A     79  62  55 SW1       29.91S
LA MESA          N/A     78  64  61 CALM      29.86F
JAMUL            N/A     80  64  57 CALM      29.92F
DESCANSO N       N/A     82  55  38 SW3       29.84F
MT. LAGUNA OBS   N/A     74  40  28 W5        29.78F
CAMPO            N/A     88  47  24 W9        29.97S

$$

ORANGE COUNTY AND THE LOS ANGELES BASIN

CITY           SKY/WX    TMP DP  RH WIND       PRES   REMARKS
JOHN WAYNE AP  SUNNY     76  61  59 SW8       29.92F
LAGUNA BEACH     N/A     77  67  70 S6        29.88F
LAKE FOREST FR   N/A     83  61  46 W3        29.81F
HUNTINGTON BCH   N/A     72  67  84 W9        29.94F
LOS ALAMITOS   SUNNY     79  63  57 SW9       29.91F
FULLERTON      SUNNY     83  56  39 VRB7      29.90F
LONG BEACH     SUNNY     77  61  57 NW9       29.91F
L.A. AP        SUNNY     70  61  73 W9        29.93F
L.A. DOWNTOWN  SUNNY     75  59  57 VRB5      29.92F

$$

THE INLAND EMPIRE

CITY           SKY/WX    TMP DP  RH WIND       PRES   REMARKS
CORONA         SUNNY     85  62  46 W13G18    29.90F
CHINO          SUNNY     87  58  37 SW15      29.92S
ONTARIO        SUNNY     87  58  37 SW13      29.91F
SAN BERNARDINO SUNNY     93  72  49 W13       29.92F HX 100
RIVERSIDE AP   SUNNY     88  56  33 W13       29.91F
MORENO VALLEY    N/A     91  58  33 S2        28.05F
MARCH ARB      SUNNY     88  51  28 NW14      29.94F
HORSETHIEF CYN   N/A     90  47  22 NE2       29.92S
PERRIS           N/A     89  53  28 W7        29.94F
HEMET EAST       N/A     91  49  23 SW6       29.79S
FRENCH VALLEY  FAIR      86  57  37 S14       29.94S
TEMECULA         N/A     86  56  34 S9        29.96S

$$

SAN BERNARDINO AND RIVERSIDE COUNTY MOUNTAINS

CITY           SKY/WX    TMP DP  RH WIND       PRES   REMARKS
BIG BEAR AP    SUNNY     72  32  23 SW9       30.29S
PINE COVE        N/A     74  49  41 N1        29.90F

$$

SOUTHERN DESERT INCLUDING THE COACHELLA VALLEY

CITY           SKY/WX    TMP DP  RH WIND       PRES   REMARKS
PALM SPRINGS   SUNNY    105  46  13 SE7       29.79F HX 101
THOUSAND PALMS   N/A    105  48  14 E6        29.75F HX 101
PALM DESERT      N/A    105  53  18 CALM      28.87F HX 102
THERMAL        SUNNY    104  49  15 SE3       29.72F HX 101
BLYTHE         SUNNY    107  46  13 SW13      29.77F HX 103
IMPERIAL AP    SUNNY    108  59  20 SE14      29.73F HX 109
EL CENTRO NAS  MOSUNNY  106  54  17 SE10      29.75F HX 104
YUMA AZ        MOSUNNY  103  58  22 S15       29.78F HX 102
MEXICALI       SUNNY    102  50  17 SE14      29.77  HX  99

$$

UPPER DESERT

CITY           SKY/WX    TMP DP  RH WIND       PRES   REMARKS
VICTORVILLE AP MOSUNNY   95  37  13 W15       29.97S
HESPERIA         N/A     87  46  23 W8        29.93F
PALMDALE       SUNNY     91  47  21 SW18      29.97F
LANCASTER      MOSUNNY   92  37  14 W28       29.96S
EDWARDS AFB    SUNNY     94  37  13 W18       29.91S
DAGGETT        SUNNY    102  31   8 SW17G23   29.86F HX  95
29 PALMS N     PTSUNNY   98  34  10 SW22      29.94F
NEEDLES        PTSUNNY  107  40  10 SW9       29.78F HX 101

$$

REGIONAL REPORTS

CITY           SKY/WX    TMP DP  RH WIND       PRES   REMARKS
SANTA BARBARA  SUNNY     69  61  75 SE10      29.90F
SANDBERG       SUNNY     82  38  20 NW21G29   30.15F
LAS VEGAS NV   MOSUNNY  101  38  11 N6        29.82F HX  95
PHOENIX AZ     PTSUNNY   97  53  22 NE25G32   29.85R
TIJUANA        SUNNY     72  59  64 W14       29.96F
ENSENADA NW      N/A     70  32  24 NW17      29.88F

$$

OFFSHORE ISLANDS

CITY           SKY/WX    TMP DP  RH WIND       PRES   REMARKS
CATALINA ARPT  SUNNY     68  60  75 SW10      29.98F
SAN CLEMENTE I PTSUNNY   67  59  75 W14       29.97F
SAN NICOLAS IS SUNNY    N/A N/A N/A W22G29    29.96F

$$

MARINE AND OFFSHORE BUOY REPORTS

STATION/POSITION SKY/WX   TEMP    WIND        PRES    SWELL
                          AIR SEA DIR/SP/G            HT/PER/DIR
                          (F)     (DEG/KT/KT) (MB)    (FT/S/D)

$$





USA.gov is the U.S. government's official web portal to all federal, state and local government web resources and services.